Location: 22
(39.7117°N, 89.5929°W)
Time: 09:59:48
(UTC-05:00)

Transit 2A - Pass Details

Date: 03 August 2024
Orbit: 590 x 961 km, 66.7° (Epoch: 13 September)

Event Time Altitude Azimuth Distance (km) Brightness Sun altitude
Rises 13:03:37 0° 340° (NNW) 3,627 9.3 67.5°
Reaches altitude 10° 13:07:02 10° 358° (N) 2,699 8.7 67.5°
Maximum altitude 13:11:24 19° 42° (NE) 2,120 8.3 67.5°
Drops below altitude 10° 13:15:44 10° 85° (E) 2,672 8.9 67.4°
Sets 13:19:04 0° 103° (ESE) 3,579 9.5 67.3°
